TimeCST,TemperatureF,Dew PointF,Humidity,Sea Level PressureIn,VisibilityMPH,Wind Direction,Wind SpeedMPH,Gust SpeedMPH,PrecipitationIn,Events,Conditions,WindDirDegrees,DateUTC
12:00 AM,63,59,81,30.02,6,North,4.6,,,,Haze,350,2012-11-17 06:00:00
12:00 AM,62.6,59.0,88,30.12,6.2,North,4.6,-,N/A,,Scattered Clouds,350,2012-11-17 06:00:00
1:00 AM,60.8,59.0,94,30.15,6.2,North,4.6,-,N/A,,Scattered Clouds,10,2012-11-17 07:00:00
3:00 AM,61,59,92,30.03,6,North,3.5,,,,Haze,350,2012-11-17 09:00:00
3:00 AM,62.6,59.0,88,30.12,6.2,North,5.8,-,N/A,,Scattered Clouds,10,2012-11-17 09:00:00
4:00 AM,62.6,59.0,88,30.15,6.2,North,2.3,-,N/A,,Mostly Cloudy,360,2012-11-17 10:00:00
5:00 AM,60.8,59.0,94,30.15,6.2,North,5.8,-,N/A,,Partly Cloudy,10,2012-11-17 11:00:00
6:00 AM,60,58,93,30.07,10,North,4.6,,,,Haze,0,2012-11-17 12:00:00
6:00 AM,60.8,59.0,94,30.15,6.2,North,4.6,-,N/A,,Partly Cloudy,360,2012-11-17 12:00:00
7:00 AM,62.6,59.0,88,30.18,6.2,North,8.1,-,N/A,,Scattered Clouds,360,2012-11-17 13:00:00
8:00 AM,64.4,60.8,88,30.18,6.2,NE,9.2,-,N/A,,Scattered Clouds,40,2012-11-17 14:00:00
9:00 AM,70,62,67,30.07,11,North,9.2,,,,Haze,0,2012-11-17 15:00:00
9:00 AM,69.8,60.8,73,30.18,6.2,North,9.2,-,N/A,,Scattered Clouds,360,2012-11-17 15:00:00
10:00 AM,73.4,60.8,65,30.18,6.2,North,13.8,-,N/A,,Scattered Clouds,360,2012-11-17 16:00:00
11:00 AM,75.2,60.8,61,30.18,6.2,North,13.8,-,N/A,,Scattered Clouds,360,2012-11-17 17:00:00
12:00 PM,76,62,52,29.96,11,North,16.1,,,,Haze,0,2012-11-17 18:00:00
12:00 PM,75.2,62.6,65,30.15,6.2,North,16.1,-,N/A,,Scattered Clouds,360,2012-11-17 18:00:00
1:00 PM,75.2,60.8,61,30.12,6.2,North,11.5,-,N/A,,Scattered Clouds,360,2012-11-17 19:00:00
2:00 PM,77.0,62.6,61,30.12,6.2,North,16.1,-,N/A,,Scattered Clouds,360,2012-11-17 20:00:00
3:00 PM,74,61,55,29.92,9,North,19.6,,,,Haze,0,2012-11-17 21:00:00
3:00 PM,75.2,62.6,65,30.12,6.2,North,19.6,-,N/A,,Scattered Clouds,360,2012-11-17 21:00:00
4:00 PM,71.6,60.8,69,30.12,6.2,North,18.4,-,N/A,,Mostly Cloudy,10,2012-11-17 22:00:00
5:00 PM,69.8,62.6,78,30.12,6.2,North,15.0,-,N/A,,Scattered Clouds,360,2012-11-17 23:00:00
6:00 PM,66,60,75,30.01,6,North,11.5,,,,Haze,350,2012-11-18 00:00:00
6:00 PM,66.2,60.8,83,30.12,6.2,North,11.5,-,N/A,,Scattered Clouds,350,2012-11-18 00:00:00
7:00 PM,64.4,60.8,88,30.18,6.2,North,10.4,-,N/A,,Scattered Clouds,360,2012-11-18 01:00:00
8:00 PM,64.4,60.8,88,30.18,6.2,North,6.9,-,N/A,,Partly Cloudy,360,2012-11-18 02:00:00
9:00 PM,63,60,87,30.07,6,North,6.9,,,,Haze,0,2012-11-18 03:00:00
9:00 PM,62.6,60.8,94,30.18,6.2,North,6.9,-,N/A,,Partly Cloudy,360,2012-11-18 03:00:00
10:00 PM,60.8,59.0,94,30.18,6.2,North,5.8,-,N/A,,Partly Cloudy,350,2012-11-18 04:00:00
11:00 PM,60.8,59.0,94,30.18,6.2,NNW,6.9,-,N/A,,Partly Cloudy,340,2012-11-18 05:00:00